TimeMDT,TemperatureF,Dew PointF,Humidity,Sea Level PressureIn,VisibilityMPH,Wind Direction,Wind SpeedMPH,Gust SpeedMPH,PrecipitationIn,Events,Conditions,WindDirDegrees,DateUTC
12:53 AM,48.9,39.0,69,29.72,10.0,ESE,4.6,-,N/A,,Mostly Cloudy,120,2011-10-11 06:53:00
1:53 AM,48.9,39.0,69,29.72,10.0,WSW,5.8,-,N/A,,Partly Cloudy,250,2011-10-11 07:53:00
2:53 AM,48.9,37.9,66,29.70,10.0,SSW,6.9,-,N/A,,Overcast,200,2011-10-11 08:53:00
3:53 AM,48.0,37.9,68,29.70,10.0,Calm,Calm,-,N/A,,Partly Cloudy,0,2011-10-11 09:53:00
4:53 AM,45.0,39.0,80,29.72,10.0,Calm,Calm,-,N/A,,Mostly Cloudy,0,2011-10-11 10:53:00
5:53 AM,50.0,37.0,61,29.70,10.0,South,8.1,-,N/A,,Mostly Cloudy,180,2011-10-11 11:53:00
6:53 AM,50.0,37.0,61,29.71,10.0,South,8.1,-,N/A,,Clear,180,2011-10-11 12:53:00
7:53 AM,44.6,39.2,81,29.69,10.0,West,6.9,-,N/A,,Mostly Cloudy,280,2011-10-11 13:53:00
8:53 AM,48.0,37.9,68,29.73,10.0,Calm,Calm,-,N/A,,Mostly Cloudy,0,2011-10-11 14:53:00
9:53 AM,52.0,37.0,57,29.75,10.0,West,3.5,-,N/A,,Mostly Cloudy,280,2011-10-11 15:53:00
10:53 AM,54.0,37.9,55,29.74,10.0,ENE,4.6,-,N/A,,Scattered Clouds,60,2011-10-11 16:53:00
11:53 AM,57.9,35.1,42,29.73,10.0,West,12.7,24.2,N/A,,Partly Cloudy,270,2011-10-11 17:53:00
12:53 PM,57.0,32.0,39,29.74,10.0,West,19.6,29.9,N/A,,Clear,260,2011-10-11 18:53:00
1:53 PM,55.4,35.6,47,29.74,10.0,WSW,16.1,24.2,N/A,,Clear,240,2011-10-11 19:53:00
2:53 PM,55.0,37.0,51,29.76,10.0,SW,13.8,21.9,N/A,,Mostly Cloudy,230,2011-10-11 20:53:00
3:53 PM,57.0,35.1,44,29.78,10.0,West,24.2,34.5,N/A,,Mostly Cloudy,270,2011-10-11 21:53:00
4:53 PM,52.0,30.9,45,29.83,10.0,West,31.1,44.9,N/A,,Clear,260,2011-10-11 22:53:00
5:53 PM,52.0,30.9,45,29.85,10.0,WSW,26.5,36.8,N/A,,Partly Cloudy,250,2011-10-11 23:53:00
6:53 PM,51.1,30.0,44,29.90,10.0,West,15.0,29.9,N/A,,Mostly Cloudy,270,2011-10-12 00:53:00
7:53 PM,50.0,30.9,48,29.96,10.0,West,16.1,26.5,N/A,,Scattered Clouds,260,2011-10-12 01:53:00
8:53 PM,48.0,30.9,52,29.97,10.0,West,15.0,20.7,N/A,,Partly Cloudy,260,2011-10-12 02:53:00
9:53 PM,48.0,30.9,52,29.99,10.0,West,13.8,20.7,N/A,,Scattered Clouds,270,2011-10-12 03:53:00
10:53 PM,46.9,30.9,54,30.00,10.0,WSW,8.1,-,N/A,,Scattered Clouds,250,2011-10-12 04:53:00
11:53 PM,48.0,28.9,48,30.01,10.0,Variable,3.5,-,N/A,,Partly Cloudy,0,2011-10-12 05:53:00